Location: Unspecified
(35.7250°N, 0.0000°E)
Time: 19:11:30
(UTC+00:00)

Explorer 7 - Pass Details

Date: 26 June 2019
Orbit: 485 x 680 km, 50.3° (Epoch: 25 August)

Event Time Altitude Azimuth Distance (km) Brightness Sun altitude
Rises 12:22:11 0° 315° (NW) 2,913 10.5 76.9°
Reaches altitude 10° 12:24:42 10° 326° (NW) 2,034 9.8 76.8°
Maximum altitude 12:28:53 31° 29° (NNE) 1,155 8.7 76.4°
Drops below altitude 10° 12:33:12 10° 91° (E) 2,099 9.8 76.0°
Sets 12:35:49 0° 102° (ESE) 3,022 10.5 75.7°
